2023/08/27 00:00:00, 0.8,21.7
2023/08/27 00:10:00, 0.8,21.6
2023/08/27 00:20:00, 0.7,21.9
2023/08/27 00:30:00, 0.8,21.8
2023/08/27 00:40:00, 0.8,22.1
2023/08/27 00:50:00, 0.8,22.1
2023/08/27 01:00:00, 0.7,21.7
2023/08/27 01:10:00, 0.7,22.1
2023/08/27 01:20:00, 0.7,22.1
2023/08/27 01:30:00, 0.7,21.9
2023/08/27 01:40:00, 0.7,22.1
2023/08/27 01:50:00, 0.7,22.1
2023/08/27 02:00:00, 0.7,22.2
2023/08/27 02:10:00, 0.7,22.1
2023/08/27 02:20:00, 0.7,22.1
2023/08/27 02:30:00, 0.7,21.9
2023/08/27 02:40:00, 0.7,21.9
2023/08/27 02:50:00, 0.7,21.8
2023/08/27 03:00:00, 0.7,21.8
2023/08/27 03:10:00, 0.8,22.1
2023/08/27 03:20:00, 0.8,21.8
2023/08/27 03:30:00, 0.8,21.6
2023/08/27 03:40:00, 0.8,21.5
2023/08/27 03:50:00, 0.8,21.6
2023/08/27 04:00:00, 0.8,21.5
2023/08/27 04:10:00, 0.8,21.6
2023/08/27 04:20:00, 0.8,21.6
2023/08/27 04:30:00, 0.7,21.7
2023/08/27 04:40:00, 0.7,21.4
2023/08/27 04:50:00, 0.7,21.4
2023/08/27 05:00:00, 0.7,21.5
2023/08/27 05:10:00, 0.7,21.4
2023/08/27 05:20:00, 0.8,21.2
2023/08/27 05:30:00, 0.7,21.2
2023/08/27 05:40:00, 0.7,21.6
2023/08/27 05:50:00, 0.7,21.6
2023/08/27 06:00:00, 0.7,21.6
2023/08/27 06:10:00, 0.7,21.7
2023/08/27 06:20:00, 0.8,21.8
2023/08/27 06:30:00, 0.8,22.1
2023/08/27 06:40:00, 0.7,22.1
2023/08/27 06:50:00, 0.7,22.3
2023/08/27 07:00:00, 0.8,25.7
2023/08/27 07:10:00, 0.8,27.3
2023/08/27 07:20:00, 0.7,31.8
2023/08/27 07:30:00, 0.7,32.2
2023/08/27 07:40:00, 0.6,31.2
2023/08/27 07:50:00, 0.5,30.4
2023/08/27 08:00:00, 0.6,28.6
2023/08/27 08:10:00, 0.6,29.3
2023/08/27 08:20:00, 0.7,29.6
2023/08/27 08:30:00, 0.7,29.7
2023/08/27 08:40:00, 0.7,30.0
2023/08/27 08:50:00, 0.7,30.1
2023/08/27 09:00:00, 0.6,30.6
2023/08/27 09:10:00, 0.6,30.8
2023/08/27 09:20:00, 0.8,30.7
2023/08/27 09:30:00, 0.7,30.8
2023/08/27 09:40:00, 0.8,31.2
2023/08/27 09:50:00, 0.7,31.2
2023/08/27 10:00:00, 0.7,31.6
2023/08/27 10:10:00, 0.8,32.0
2023/08/27 10:20:00, 0.8,32.9
2023/08/27 10:30:00, 0.7,32.8
2023/08/27 10:40:00, 0.6,32.8
2023/08/27 10:50:00, 0.7,32.5
2023/08/27 11:00:00, 0.8,33.5
2023/08/27 11:10:00, 0.8,33.9
2023/08/27 11:20:00, 0.8,32.9
2023/08/27 11:30:00, 0.8,33.2
2023/08/27 11:40:00, 0.7,34.6
2023/08/27 11:50:00, 0.8,33.6
2023/08/27 12:00:00, 0.8,32.9
2023/08/27 12:10:00, 0.7,34.4
2023/08/27 12:20:00, 0.7,33.5
2023/08/27 12:30:00, 0.7,32.7
2023/08/27 12:40:00, 0.7,33.4
2023/08/27 12:50:00, 0.8,33.5
2023/08/27 13:00:00, 0.7,34.8
2023/08/27 13:10:00, 0.7,35.0
2023/08/27 13:20:00, 0.8,34.8
2023/08/27 13:30:00, 0.8,34.4
2023/08/27 13:40:00, 0.8,34.2
2023/08/27 13:50:00, 0.7,33.3
2023/08/27 14:00:00, 0.7,32.1
2023/08/27 14:10:00, 0.8,31.3
2023/08/27 14:20:00, 0.8,30.3
2023/08/27 14:30:00, 0.7,26.1
2023/08/27 14:40:00, 0.6,25.6
2023/08/27 14:50:00, 0.6,25.7
2023/08/27 15:00:00, 0.7,26.0
2023/08/27 15:10:00, 0.7,25.7
2023/08/27 15:20:00, 0.7,25.7
2023/08/27 15:30:00, 0.7,25.8
2023/08/27 15:40:00, 0.7,25.9
2023/08/27 15:50:00, 0.7,26.4
2023/08/27 16:00:00, 0.7,26.4
2023/08/27 16:10:00, 0.8,26.2
2023/08/27 16:20:00, 0.7,25.9
2023/08/27 16:30:00, 0.7,26.1
2023/08/27 16:40:00, 0.7,24.9
2023/08/27 16:50:00, 0.6,25.4
2023/08/27 17:00:00, 0.7,25.8
2023/08/27 17:10:00, 0.7,25.7
2023/08/27 17:20:00, 0.7,25.3
2023/08/27 17:30:00, 0.7,25.3
2023/08/27 17:40:00, 0.7,25.0
2023/08/27 17:50:00, 0.7,25.2
2023/08/27 18:00:00, 0.7,25.0
2023/08/27 18:10:00, 0.7,25.1
2023/08/27 18:20:00, 0.7,24.8
2023/08/27 18:30:00, 0.7,24.6
2023/08/27 18:40:00, 0.7,24.5
2023/08/27 18:50:00, 0.7,24.3
2023/08/27 19:00:00, 0.7,24.1
2023/08/27 19:10:00, 0.7,24.0
2023/08/27 19:20:00, 0.7,23.9
2023/08/27 19:30:00, 0.7,23.7
2023/08/27 19:40:00, 0.8,23.8
2023/08/27 19:50:00, 0.8,23.8
2023/08/27 20:00:00, 0.8,23.8
2023/08/27 20:10:00, 0.8,24.0
2023/08/27 20:20:00, 0.8,23.7
2023/08/27 20:30:00, 0.8,23.7
2023/08/27 20:40:00, 0.8,23.7
2023/08/27 20:50:00, 0.8,23.6
2023/08/27 21:00:00, 0.7,23.5
2023/08/27 21:10:00, 0.7,23.4
2023/08/27 21:20:00, 0.7,23.7
2023/08/27 21:30:00, 0.7,23.3
2023/08/27 21:40:00, 0.7,23.2
2023/08/27 21:50:00, 0.8,23.2
2023/08/27 22:00:00, 0.8,23.4
2023/08/27 22:10:00, 0.8,23.2
2023/08/27 22:20:00, 0.8,23.0
2023/08/27 22:30:00, 0.8,23.2
2023/08/27 22:40:00, 0.8,23.4
2023/08/27 22:50:00, 0.8,22.9
2023/08/27 23:00:00, 0.8,23.0
2023/08/27 23:10:00, 0.8,22.8
2023/08/27 23:20:00, 0.8,23.1
2023/08/27 23:30:00, 0.8,22.9
2023/08/27 23:40:00, 0.8,22.8
2023/08/27 23:50:00, 0.8,22.7
